Location: Erlenbrunn
(49.1717°N, 7.6142°E)
Time: 11:56:19
(UTC+00:00)

Cosmos 1933 Rocket - Pass Details

Date: 25 November 2020
Orbit: 605 x 631 km, 82.5° (Epoch: 25 January)

Event Time Altitude Azimuth Distance (km) Brightness Sun altitude
Rises 17:30:49 0° 356° (N) 2,936 7.0 -17.9°
Reaches altitude 10° 17:33:12 10° 4° (N) 2,024 6.0 -18.3°
Enters shadow 17:36:12 32° 38° (NE) 1,098 4.4 -18.8°
